When you browse on this site, cookies collect data to enhance your experience and personalize the content and advertising you see.
Visit our Privacy Policy to learn more. By continuing to use the site, you agree to this use of cookies and data.
  • In Germany
  • List of Countries
  • For 7 days
  • Water Temperature
  • Weather Map
  • Weather Widgets
  • user-avatar
    Login

    Hourly Weather Naftalan

    Today, 25 August, Sunday

    Time Temperature Precipitation Wind Pressure Humidity
    00:00 +27°C° 0 mm 2 mps 761 mmHg 68%
    01:00 +27°C° 0 mm 2 mps 760 mmHg 69%
    02:00 +26°C° 0 mm 1 mps 760 mmHg 70%
    03:00 +25°C° 0 mm 1 mps 761 mmHg 71%
    04:00 +26°C° 0 mm 1 mps 761 mmHg 68%
    05:00 +27°C° 0 mm 1 mps 761 mmHg 66%
    06:00 +27°C° 0 mm 1 mps 761 mmHg 63%
    07:00 +29°C° 0 mm 1 mps 761 mmHg 54%
    08:00 +32°C° 0 mm 2 mps 761 mmHg 45%
    09:00 +35°C° 0 mm 2 mps 761 mmHg 36%
    10:00 +36°C° 0 mm 3 mps 761 mmHg 35%
    11:00 +36°C° 0 mm 4 mps 761 mmHg 34%
    12:00 +37°C° 0 mm 5 mps 760 mmHg 32%
    13:00 +36°C° 0 mm 6 mps 760 mmHg 33%
    14:00 +36°C° 0 mm 6 mps 760 mmHg 33%
    15:00 +35°C° 0 mm 6 mps 760 mmHg 33%
    16:00 +34°C° 0 mm 5 mps 760 mmHg 40%
    17:00 +32°C° 0 mm 4 mps 760 mmHg 46%
    18:00 +30°C° 0 mm 4 mps 760 mmHg 52%
    19:00 +28°C° 0 mm 3 mps 760 mmHg 60%
    20:00 +27°C° 0 mm 2 mps 761 mmHg 68%
    21:00 +26°C° 0 mm 2 mps 761 mmHg 76%
    22:00 +26°C° 0 mm 2 mps 761 mmHg 73%
    23:00 +26°C° 0 mm 2 mps 761 mmHg 70%

    Tomorrow, 26 August, Monday

    Time Temperature Precipitation Wind Pressure Humidity
    00:00 +26°C° 0 mm 3 mps 761 mmHg 67%
    01:00 +26°C° 0 mm 3 mps 761 mmHg 65%
    02:00 +25°C° 0 mm 3 mps 761 mmHg 63%
    03:00 +25°C° 0 mm 3 mps 761 mmHg 61%
    04:00 +25°C° 0 mm 3 mps 761 mmHg 60%
    05:00 +26°C° 0 mm 3 mps 762 mmHg 60%
    06:00 +26°C° 0 mm 3 mps 762 mmHg 59%
    07:00 +28°C° 0 mm 4 mps 762 mmHg 51%
    08:00 +30°C° 0 mm 5 mps 762 mmHg 42%
    09:00 +33°C° 0 mm 6 mps 763 mmHg 33%
    10:00 +34°C° 0 mm 7 mps 763 mmHg 35%
    11:00 +34°C° 0 mm 8 mps 762 mmHg 36%
    12:00 +34°C° 0 mm 8 mps 762 mmHg 37%
    13:00 +34°C° 0 mm 9 mps 762 mmHg 37%
    14:00 +34°C° 0 mm 9 mps 762 mmHg 38%
    15:00 +34°C° 0 mm 9 mps 762 mmHg 38%
    16:00 +33°C° 0 mm 9 mps 762 mmHg 42%
    17:00 +32°C° 0 mm 8 mps 762 mmHg 46%
    18:00 +30°C° 0 mm 7 mps 763 mmHg 51%
    19:00 +29°C° 0 mm 7 mps 763 mmHg 52%
    20:00 +28°C° 0 mm 7 mps 764 mmHg 53%
    21:00 +28°C° 0 mm 7 mps 764 mmHg 55%
    22:00 +27°C° 0.1 mm 7 mps 764 mmHg 57%
    23:00 +26°C° 0.1 mm 6 mps 764 mmHg 59%

    Day after tomorrow, 27 August, Tuesday

    Time Temperature Precipitation Wind Pressure Humidity
    00:00 +26°C° 0.1 mm 6 mps 764 mmHg 62%
    01:00 +25°C° 0.1 mm 5 mps 764 mmHg 62%
    02:00 +25°C° 0.1 mm 5 mps 764 mmHg 63%
    03:00 +23°C° 0.1 mm 4 mps 764 mmHg 64%
    04:00 +23°C° 0.3 mm 4 mps 764 mmHg 64%
    05:00 +23°C° 0.3 mm 4 mps 764 mmHg 65%
    06:00 +24°C° 0.3 mm 3 mps 764 mmHg 65%
    07:00 +26°C° 0.2 mm 4 mps 764 mmHg 61%
    08:00 +27°C° 0.2 mm 5 mps 764 mmHg 58%
    09:00 +29°C° 0.2 mm 6 mps 764 mmHg 54%
    10:00 +30°C° 0 mm 6 mps 763 mmHg 52%
    11:00 +30°C° 0 mm 6 mps 763 mmHg 49%
    12:00 +32°C° 0 mm 6 mps 763 mmHg 47%
    13:00 +32°C° 0 mm 6 mps 762 mmHg 47%
    14:00 +32°C° 0 mm 6 mps 762 mmHg 46%
    15:00 +32°C° 0 mm 6 mps 761 mmHg 46%
    16:00 +30°C° 0 mm 5 mps 761 mmHg 49%
    17:00 +29°C° 0 mm 5 mps 761 mmHg 52%
    18:00 +28°C° 0 mm 4 mps 761 mmHg 56%
    19:00 +27°C° 0 mm 3 mps 761 mmHg 59%
    20:00 +27°C° 0 mm 2 mps 761 mmHg 62%
    21:00 +26°C° 0 mm 2 mps 762 mmHg 65%
    22:00 +26°C° 0 mm 2 mps 762 mmHg 67%
    23:00 +25°C° 0 mm 2 mps 761 mmHg 69%

    28 August, Wednesday

    Time Temperature Precipitation Wind Pressure Humidity
    00:00 +25°C° 0 mm 2 mps 761 mmHg 71%
    01:00 +25°C° 0 mm 2 mps 761 mmHg 72%
    02:00 +24°C° 0 mm 3 mps 761 mmHg 73%
    03:00 +24°C° 0 mm 3 mps 761 mmHg 74%
    04:00 +24°C° 0 mm 3 mps 761 mmHg 73%
    05:00 +25°C° 0 mm 3 mps 761 mmHg 71%
    06:00 +25°C° 0 mm 3 mps 761 mmHg 70%
    07:00 +26°C° 0 mm 3 mps 762 mmHg 62%
    08:00 +28°C° 0 mm 4 mps 762 mmHg 54%
    09:00 +29°C° 0 mm 4 mps 762 mmHg 46%
    10:00 +30°C° 0 mm 4 mps 761 mmHg 44%
    11:00 +32°C° 0 mm 5 mps 761 mmHg 42%
    12:00 +33°C° 0 mm 5 mps 761 mmHg 40%
    13:00 +33°C° 0 mm 5 mps 761 mmHg 42%
    14:00 +32°C° 0 mm 5 mps 760 mmHg 45%
    15:00 +32°C° 0 mm 5 mps 760 mmHg 47%
    16:00 +30°C° 0 mm 5 mps 760 mmHg 51%
    17:00 +29°C° 0 mm 5 mps 760 mmHg 55%
    18:00 +28°C° 0 mm 4 mps 761 mmHg 59%
    19:00 +27°C° 0 mm 4 mps 761 mmHg 62%
    20:00 +27°C° 0 mm 3 mps 762 mmHg 65%
    21:00 +26°C° 0 mm 3 mps 762 mmHg 68%
    22:00 +26°C° 0 mm 2 mps 762 mmHg 68%
    23:00 +25°C° 0 mm 2 mps 762 mmHg 68%

    29 August, Thursday

    Time Temperature Precipitation Wind Pressure Humidity
    00:00 +25°C° 0 mm 2 mps 762 mmHg 68%
    01:00 +25°C° 0 mm 2 mps 762 mmHg 69%
    02:00 +24°C° 0 mm 1 mps 762 mmHg 71%
    03:00 +24°C° 0 mm 1 mps 762 mmHg 73%
    04:00 +24°C° 0 mm 1 mps 762 mmHg 71%
    05:00 +25°C° 0 mm 1 mps 762 mmHg 70%
    06:00 +25°C° 0 mm 1 mps 762 mmHg 68%
    07:00 +27°C° 0 mm 2 mps 762 mmHg 61%
    08:00 +28°C° 0 mm 2 mps 762 mmHg 54%
    09:00 +30°C° 0 mm 3 mps 762 mmHg 47%
    10:00 +31°C° 0 mm 3 mps 762 mmHg 45%
    11:00 +32°C° 0 mm 4 mps 762 mmHg 43%
    12:00 +33°C° 0 mm 5 mps 761 mmHg 41%
    13:00 +32°C° 0 mm 5 mps 761 mmHg 42%
    14:00 +32°C° 0 mm 5 mps 760 mmHg 43%
    15:00 +32°C° 0 mm 6 mps 760 mmHg 44%
    16:00 +30°C° 0 mm 5 mps 760 mmHg 48%
    17:00 +29°C° 0 mm 5 mps 761 mmHg 51%
    18:00 +28°C° 0 mm 4 mps 761 mmHg 55%
    19:00 +27°C° 0 mm 4 mps 761 mmHg 58%
    20:00 +27°C° 0 mm 4 mps 762 mmHg 61%
    21:00 +26°C° 0 mm 3 mps 762 mmHg 65%
    22:00 +26°C° 0.1 mm 4 mps 763 mmHg 67%
    23:00 +26°C° 0.1 mm 5 mps 763 mmHg 70%

    30 August, Friday

    Time Temperature Precipitation Wind Pressure Humidity
    00:00 +26°C° 0.1 mm 6 mps 763 mmHg 72%
    01:00 +24°C° 0.1 mm 6 mps 763 mmHg 72%
    02:00 +24°C° 0.1 mm 7 mps 762 mmHg 72%
    03:00 +24°C° 0.1 mm 8 mps 762 mmHg 73%
    04:00 +24°C° 0.1 mm 7 mps 762 mmHg 72%
    05:00 +24°C° 0.1 mm 7 mps 763 mmHg 72%
    06:00 +23°C° 0.1 mm 7 mps 763 mmHg 72%
    07:00 +24°C° 0.1 mm 8 mps 763 mmHg 70%
    08:00 +24°C° 0.1 mm 8 mps 763 mmHg 69%
    09:00 +24°C° 0.1 mm 8 mps 763 mmHg 67%
    10:00 +26°C° 0.1 mm 8 mps 763 mmHg 65%
    11:00 +26°C° 0.1 mm 8 mps 762 mmHg 62%
    12:00 +27°C° 0.1 mm 8 mps 762 mmHg 60%
    13:00 +26°C° 0.1 mm 7 mps 762 mmHg 60%
    14:00 +26°C° 0.1 mm 7 mps 762 mmHg 61%
    15:00 +26°C° 0.1 mm 6 mps 762 mmHg 61%
    16:00 +24°C° 0.2 mm 6 mps 762 mmHg 64%
    17:00 +24°C° 0.2 mm 6 mps 762 mmHg 66%
    18:00 +23°C° 0.2 mm 6 mps 762 mmHg 69%
    19:00 +23°C° 0.3 mm 6 mps 763 mmHg 70%
    20:00 +23°C° 0.3 mm 6 mps 763 mmHg 72%
    21:00 +22°C° 0.3 mm 6 mps 763 mmHg 73%
    22:00 +22°C° 0.2 mm 6 mps 763 mmHg 72%
    23:00 +22°C° 0.2 mm 6 mps 763 mmHg 71%
    Show more